This demonstration page uses our WeatherBlox Daily Observations layout. Learn more.

36.17497, -115.13722

Hourly Observations for January 23, 2018

Temp ( °F °C ) Dew Point ( °F °C ) Humidity (%) Winds ( mph kmh ) Pressure ( in mb ) Visibility ( mi km ) Precip ( " mm )
12:53 am 00:53 Clear 40 4.4 25 -3.9 55 55 NW 7 11 30.33 1027 10 16.0934 0 0
1:53 am 01:53 Clear 41 5 23 -5 49 49 WNW 5 7 30.33 1027 10 16.0934 0 0
2:53 am 02:53 Clear 42 5.6 23 -5 47 47 N 5 7 30.32 1027 10 16.0934 0 0
3:53 am 03:53 Clear 44 6.7 22 -5.6 41 41 NNW 9 15 30.31 1027 10 16.0934 0 0
4:53 am 04:53 Clear 42 5.6 22 -5.6 45 45 NNW 6 9 30.32 1027 10 16.0934 0 0
5:53 am 05:53 Clear 42 5.6 22 -5.6 45 45 NNW 12 19 30.33 1027 10 16.0934 0 0
6:53 am 06:53 Sunny 42 5.6 22 -5.6 45 45 N 10 17 30.36 1028 10 16.0934 0 0
7:53 am 07:53 Sunny 43 6.1 23 -5 45 45 NNW 6 9 30.38 1029 10 16.0934 0 0
8:53 am 08:53 Sunny 48 8.9 24 -4.4 39 39 NNW 7 11 30.39 1029 10 16.0934 0 0
9:53 am 09:53 Sunny 50 10 25 -3.9 38 38 SE 6 9 30.4 1029 10 16.0934 0 0
10:53 am 10:53 Sunny 53 11.7 25 -3.9 34 34 SSE 3 6 30.37 1029 10 16.0934 0 0
11:53 am 11:53 Sunny 56 13.3 25 -3.9 30 30 ESE 3 6 30.34 1027 10 16.0934 0 0
12:53 pm 12:53 Sunny 56 13.3 24 -4.4 29 29 Calm 30.32 1027 10 16.0934 0 0
1:53 pm 13:53 Sunny 58 14.4 24 -4.4 27 27 Calm 30.29 1026 10 16.0934 0 0
2:53 pm 14:53 Sunny 58 14.4 24 -4.4 27 27 SE 3 6 30.28 1026 10 16.0934 0 0
3:53 pm 15:53 Sunny 59 15 24 -4.4 26 26 Calm 30.29 1026 10 16.0934 0 0
4:53 pm 16:53 Sunny 56 13.3 24 -4.4 29 29 SSE 5 7 30.3 1026 10 16.0934 0 0
5:53 pm 17:53 Clear 55 12.8 24 -4.4 30 30 Calm 30.31 1026 10 16.0934 0 0
6:53 pm 18:53 Clear 52 11.1 25 -3.9 35 35 W 6 9 30.32 1027 10 16.0934 0 0
7:53 pm 19:53 Clear 49 9.4 28 -2.2 44 44 WNW 3 6 30.32 1027 10 16.0934 0 0
8:53 pm 20:53 Clear 46 7.8 28 -2.2 50 50 NNW 5 7 30.33 1027 10 16.0934 0 0
9:53 pm 21:53 Clear 45 7.2 27 -2.8 49 49 NW 7 11 30.33 1027 10 16.0934 0 0
10:53 pm 22:53 Clear 42 5.6 27 -2.8 55 55 NNW 3 6 30.33 1027 10 16.0934 0 0
11:53 pm 23:53 Clear 42 5.6 28 -2.2 58 58 NNW 3 6 30.33 1027 10 16.0934 0 0

Powered by AerisWeather